| time (UTC) | temp F | wind direction | speed knots | gust knots | rain 1hr in | rain 24hr in | rain mn in | humidity % | barometer mb |
| 20260507110504 | 63 | 197 | 3.5 | 5.2 | 0.00 | 0.00 | 0.00 | 48 | 1014.1 |
| 20260507110005 | 63 | 196 | 0.9 | 2.6 | 0.00 | 0.00 | 0.00 | 50 | 1014.1 |
| 20260507103007 | 62 | 137 | 1.7 | 4.3 | 0.00 | 0.00 | 0.00 | 53 | 1014.2 |
| 20260507090006 | 58 | 155 | 0.9 | 2.6 | 0.00 | 0.00 | 0.00 | 67 | 1014.5 |
| 20260507083005 | 56 | 162 | 2.6 | 5.2 | 0.00 | 0.00 | 0.00 | 72 | 1014.6 |
| 20260507080005 | 52 | 10 | 1.7 | 4.3 | 0.00 | 0.00 | 0.00 | 85 | 1014.7 |
| 20260507073504 | 47 | 10 | 0.0 | 0.9 | 0.00 | 0.00 | 0.00 | 91 | 1014.7 |
| 20260507073006 | 47 | 15 | 0.0 | 0.0 | 0.00 | 0.00 | 0.00 | 93 | 1014.7 |
| 20260507070504 | 42 | 15 | 0.0 | 0.0 | 0.00 | 0.00 | 0.00 | 95 | 1014.7 |
| 20260507063005 | 39 | 15 | 0.0 | 0.0 | 0.00 | 0.00 | 0.00 | 96 | 1014.8 |
| 20260507053504 | 33 | 15 | 0.0 | 0.0 | 0.00 | 0.00 | 0.00 | 93 | 1014.3 |
| 20260507050005 | 31 | 15 | 0.0 | 0.0 | 0.00 | 0.00 | 0.00 | 91 | 1014.2 |
| 20260507043504 | 31 | 15 | 0.0 | 0.0 | 0.00 | 0.00 | 0.00 | 90 | 1014.2 |
| 20260507043004 | 31 | 15 | 0.0 | 0.0 | 0.00 | 0.00 | 0.00 | 90 | 1014.1 |
| 20260507040004 | 31 | 15 | 0.0 | 0.0 | 0.00 | 0.00 | 0.00 | 90 | 1014.2 |
| 20260507033504 | 32 | 15 | 0.0 | 0.0 | 0.00 | 0.00 | 0.00 | 90 | 1014.1 |
| 20260507033004 | 32 | 15 | 0.0 | 0.0 | 0.00 | 0.00 | 0.00 | 90 | 1014.1 |
| 20260507030005 | 33 | 15 | 0.0 | 0.0 | 0.00 | 0.00 | 0.00 | 90 | 1014.1 |
| 20260507020504 | 34 | 15 | 0.0 | 0.0 | 0.00 | 0.00 | 0.00 | 89 | 1013.8 |
| 20260507013004 | 35 | 15 | 0.0 | 0.0 | 0.00 | 0.00 | 0.00 | 88 | 1013.7 |
| 20260507010504 | 35 | 15 | 0.0 | 0.0 | 0.00 | 0.00 | 0.00 | 88 | 1013.7 |
| 20260507003504 | 36 | 15 | 0.0 | 0.0 | 0.00 | 0.00 | 0.00 | 87 | 1013.7 |
| 20260507003004 | 37 | 15 | 0.0 | 0.0 | 0.00 | 0.00 | 0.00 | 87 | 1013.8 |
| 20260507000004 | 38 | 15 | 0.0 | 0.0 | 0.00 | 0.00 | 0.00 | 86 | 1013.8 |
| 20260506233504 | 39 | 15 | 0.0 | 0.0 | 0.00 | 0.00 | 0.00 | 84 | 1013.6 |
| 20260506230504 | 41 | 15 | 0.0 | 0.0 | 0.00 | 0.00 | 0.00 | 83 | 1013.4 |
| 20260506230005 | 41 | 15 | 0.0 | 0.0 | 0.00 | 0.00 | 0.00 | 82 | 1013.4 |
| 20260506223504 | 44 | 15 | 0.0 | 0.0 | 0.00 | 0.00 | 0.00 | 81 | 1013.5 |
| 20260506223005 | 44 | 15 | 0.0 | 0.0 | 0.00 | 0.00 | 0.00 | 79 | 1013.5 |
| 20260506220504 | 46 | 15 | 0.0 | 0.0 | 0.00 | 0.00 | 0.00 | 76 | 1013.2 |
| 20260506213504 | 49 | 15 | 0.0 | 0.0 | 0.00 | 0.00 | 0.00 | 73 | 1013.2 |
| 20260506210004 | 51 | 15 | 0.9 | 4.3 | 0.00 | 0.00 | 0.00 | 69 | 1013.0 |
| 20260506200504 | 52 | 14 | 0.9 | 4.3 | 0.00 | 0.00 | 0.00 | 68 | 1012.7 |
| 20260506200004 | 52 | 14 | 1.7 | 5.2 | 0.00 | 0.00 | 0.00 | 67 | 1012.7 |
| 20260506180005 | 55 | 10 | 1.7 | 6.1 | 0.00 | 0.00 | 0.00 | 64 | 1011.6 |
| 20260506173504 | 55 | 10 | 4.3 | 7.8 | 0.00 | 0.00 | 0.00 | 63 | 1011.3 |
| 20260506173004 | 56 | 8 | 2.6 | 7.8 | 0.00 | 0.00 | 0.00 | 62 | 1011.3 |
| 20260506170504 | 56 | 10 | 0.9 | 4.3 | 0.00 | 0.00 | 0.00 | 61 | 1011.1 |
| 20260506170005 | 56 | 10 | 0.9 | 5.2 | 0.00 | 0.00 | 0.00 | 60 | 1011.1 |
| 20260506150505 | 58 | 38 | 2.6 | 7.8 | 0.00 | 0.00 | 0.00 | 60 | 1011.4 |
| 20260506150005 | 58 | 38 | 2.6 | 8.7 | 0.00 | 0.00 | 0.00 | 58 | 1011.4 |
| 20260506140505 | 61 | 12 | 5.2 | 13.9 | 0.00 | 0.00 | 0.00 | 56 | 1011.2 |
| 20260506140005 | 61 | 26 | 4.3 | 13.9 | 0.00 | 0.00 | 0.00 | 53 | 1011.2 |
| 20260506133505 | 61 | 37 | 5.2 | 13.0 | 0.00 | 0.00 | 0.00 | 52 | 1011.2 |
| 20260506133006 | 61 | 12 | 4.3 | 11.3 | 0.00 | 0.00 | 0.00 | 53 | 1011.1 |
| 20260506120006 | 60 | 24 | 4.3 | 12.2 | 0.00 | 0.00 | 0.00 | 54 | 1011.4 |